User: anonymous   Login
Location: Unspecified
(41.1850°N, 73.2650°W)
Time: 07:35:19
(UTC+00:00)
Language:

Cosmos 2263 Rocket - Orbit

View from above orbital plane
View from above orbital plane
View from above satellite
View from above satellite

Ground track
Ground track

The orbit is defined by the following mean orbital elements,

1 22803U          26037.56228177 +.00000000 +00000-0 +15088-3 0 00009
2 22803  70.9892  76.7711 0019491 259.1471 100.7459 14.17226597    04
Epoch (UTC): 06 February 2026 13:29:41
Eccentricity: 0.0019491
inclination: 70.9892°
perigee height: 821 km
apogee height: 849 km
right ascension of ascending node: 76.7711°
argument of perigee: 259.1471°
revolutions per day: 14.17226597
mean anomaly at epoch: 100.7459°

The dashed part of the orbit path shows where the satellite is in the earth's shadow,  

DLR